Location: Newark
(43.9494°N, 6.8108°E)
Time: 13:43:13
(UTC+00:00)

Envisat - Pass Details

Date: 16 September 2019
Orbit: 764 x 766 km, 98.1° (Epoch: 22 October)

Event Time Altitude Azimuth Distance (km) Brightness Sun altitude
Rises 18:30:42 0° 193° (SSW) 3,219 6.2 -9.5°
Reaches altitude 10° 18:33:16 10° 205° (SSW) 2,298 5.6 -9.9°
Maximum altitude 18:37:40 30° 265° (W) 1,365 5.1 -10.7°
Drops below altitude 10° 18:42:07 10° 326° (NW) 2,313 6.3 -11.5°
Sets 18:44:43 0° 337° (NNW) 3,244 6.8 -11.9°
